Regional Weather Roundup
Issued by NWS

Home | Current Version | Previous Version | Text Only | Print | Product List | Glossary Off
Versions: 1 2 3 4 5 6 7 8 9 10 11 12 13 14 15 16 17 18 19 20 21 22 23 24 25 26 27 28 29 30 31 32 33 34 35 36 37 38 39 40 41 42 43 44 45 46 47 48 49 50

000
ASUS43 KBIS 020802
RWRND

NORTH DAKOTA REGIONAL WEATHER ROUNDUP
NATIONAL WEATHER SERVICE BISMARCK ND
300 AM CDT SUN AUG 02 2015

NOTE: "FAIR" INDICATES FEW OR NO CLOUDS BELOW 12,000 FEET WITH NO
SIGNIFICANT WEATHER AND/OR OBSTRUCTIONS TO VISIBILITY.


NDZ001>003-009>011-017-020900-
NORTHWEST NORTH DAKOTA

CITY           SKY/WX    TMP DP  RH WIND       PRES   REMARKS
WILLISTON      CLEAR     62  53  72 N9        29.89R
MINOT          CLEAR     63  57  81 W10       29.81R
MINOT AFB      CLEAR     62  60  94 NW9       29.80R
$$

NDZ018>021-031>035-040>046-020900-
SOUTHWEST NORTH DAKOTA

CITY           SKY/WX    TMP DP  RH WIND       PRES   REMARKS
BISMARCK       CLEAR     67  57  70 NW12G20   29.77R
DICKINSON      CLEAR     64  52  64 N9        29.88R
GARRISON         N/A     63  57  81 N12       29.81R
HETTINGER ARPT CLEAR     62  43  49 N7        29.88R
$$

NDZ004>008-012>016-024-026-027-054-020900-
NORTHEAST NORTH DAKOTA

CITY           SKY/WX    TMP DP  RH WIND       PRES   REMARKS
GRAND FORKS    MOCLDY    68  60  75 NE6       29.68F
GRND FRKS AFB  PTCLDY    67  60  79 NE5       29.68F
DEVILS LAKE    PTCLDY    64  54  68 NE6       29.71R
$$

NDZ022-023-025-028>030-036>039-047>053-020900-
SOUTHEAST NORTH DAKOTA

CITY           SKY/WX    TMP DP  RH WIND       PRES   REMARKS
FARGO          PTCLDY    70  66  87 NE3       29.65S
JAMESTOWN      CLEAR     68  59  73 W8        29.65S
$$



USA.gov is the U.S. government's official web portal to all federal, state and local government web resources and services.